FW8778 Weather Reports


time (UTC)temp
F
wind
direction
speed
knots
gust
knots
rain 1hr
in
rain 24hr
in
rain mn
in
humidity
%
barometer
mb
20240222120038 58 359 0.0 0.0 0.00 0.00 0.00 48 1020.1
20240222114551 57 359 0.0 0.0 0.00 0.00 0.00 50 1020.5
20240222113035 57 359 0.0 0.0 0.00 0.00 0.00 52 1020.7
20240222111531 57 359 0.0 0.0 0.00 0.00 0.00 51 1020.9
20240222110034 56 359 0.0 0.0 0.00 0.00 0.00 53 1021.2
20240222104525 56 359 0.0 0.0 0.00 0.00 0.00 54 1021.4
20240222103022 55 359 0.0 0.0 0.00 0.00 0.00 54 1021.6
20240222101521 55 359 0.0 0.0 0.00 0.00 0.00 55 1021.6
20240222100020 55 359 0.0 0.0 0.00 0.00 0.00 55 1021.8
20240222094518 54 359 0.0 0.0 0.00 0.00 0.00 56 1022.0
20240222093023 54 359 0.0 0.0 0.00 0.00 0.00 55 1022.0
20240222091515 54 359 0.0 0.0 0.00 0.00 0.00 55 1022.0
20240222090014 53 359 0.0 0.0 0.00 0.00 0.00 54 1021.9
20240222084519 53 359 0.0 0.0 0.00 0.00 0.00 55 1021.9
20240222083021 53 359 0.0 0.0 0.00 0.00 0.00 53 1021.9
20240222081511 53 359 0.0 0.0 0.00 0.00 0.00 51 1022.1
20240222080006 51 359 0.0 0.0 0.00 0.00 0.00 55 1022.1
20240222074502 50 359 0.0 0.0 0.00 0.00 0.00 57 1022.2
20240222073110 48 359 0.0 0.0 0.00 0.00 0.00 57 1022.3
20240222071556 47 359 0.0 0.0 0.00 0.00 0.00 61 1022.3
20240222070104 45 359 0.0 0.0 0.00 0.00 0.00 64 1022.2
20240222064627 43 359 0.0 0.0 0.00 0.00 0.00 65 1022.3
20240222063056 43 359 0.0 0.0 0.00 0.00 0.00 66 1022.1
20240222061553 42 359 0.0 0.0 0.00 0.00 0.00 66 1022.0
20240222060051 42 359 0.0 0.0 0.00 0.00 0.00 65 1022.1
20240222054551 42 359 0.0 0.0 0.00 0.00 0.00 65 1021.9
20240222053051 42 359 0.0 0.0 0.00 0.00 0.00 66 1021.8
20240222051552 42 359 0.0 0.0 0.00 0.00 0.00 66 1021.8
20240222050051 42 359 0.0 0.0 0.00 0.00 0.00 66 1021.8
20240222044549 42 359 0.0 0.0 0.00 0.00 0.00 66 1021.7
20240222043049 42 359 0.0 0.0 0.00 0.00 0.00 66 1021.7
20240222041552 42 359 0.0 0.0 0.00 0.00 0.00 66 1021.6
20240222040047 42 359 0.0 0.0 0.00 0.00 0.00 65 1021.7
20240222034548 42 359 0.0 0.0 0.00 0.00 0.00 65 1021.7
20240222033046 43 359 0.0 0.0 0.00 0.00 0.00 65 1021.6
20240222031550 42 359 0.0 0.0 0.00 0.00 0.00 66 1021.6
20240222030053 42 359 0.0 0.0 0.00 0.00 0.00 65 1021.6
20240222024543 43 359 0.0 0.0 0.00 0.00 0.00 65 1021.7
20240222023046 43 359 0.0 0.0 0.00 0.00 0.00 65 1021.7
20240222021601 43 359 0.0 0.0 0.00 0.00 0.00 64 1021.8
20240222020038 43 359 0.0 0.0 0.00 0.00 0.00 64 1021.9
20240222014552 44 359 0.0 0.0 0.00 0.00 0.00 64 1021.9
20240222013034 44 359 0.0 0.0 0.00 0.00 0.00 63 1022.0
20240222011544 44 359 0.0 0.0 0.00 0.00 0.00 63 1022.1
20240222010037 44 359 0.0 0.0 0.00 0.00 0.00 63 1022.3
20240222004534 44 359 0.0 0.0 0.00 0.00 0.00 62 1022.5
20240222003030 45 359 0.0 0.0 0.00 0.00 0.00 61 1022.5
20240222001526 45 359 0.0 0.0 0.00 0.00 0.00 60 1022.6
20240222000031 45 359 0.0 0.0 0.00 0.00 0.00 60 1022.7
20240221234524 45 359 0.0 0.0 0.00 0.00 0.00 61 1022.8
20240221233023 46 359 0.0 0.0 0.00 0.00 0.00 60 1022.8
20240221231525 46 359 0.0 0.0 0.00 0.00 0.00 60 1022.8
20240221230019 46 359 0.0 0.0 0.00 0.00 0.00 59 1022.7
20240221224519 46 359 0.0 0.0 0.00 0.00 0.00 60 1022.7
20240221223018 46 359 0.0 0.0 0.00 0.00 0.00 60 1022.8
20240221221518 46 359 0.0 0.0 0.00 0.00 0.00 60 1022.7
20240221220017 46 359 0.0 0.0 0.00 0.00 0.00 61 1022.7
20240221214520 46 359 0.0 0.0 0.00 0.00 0.00 63 1022.8
20240221213020 46 359 0.0 0.0 0.00 0.00 0.00 64 1022.9
20240221211520 46 359 0.0 0.0 0.00 0.00 0.00 62 1022.8
20240221210013 48 359 0.0 0.0 0.00 0.00 0.00 59 1022.8
20240221204513 48 359 0.0 0.0 0.00 0.00 0.00 58 1022.8
20240221203026 49 359 0.0 0.0 0.00 0.00 0.00 56 1023.0
20240221201511 49 359 0.0 0.0 0.00 0.00 0.00 55 1023.0
20240221200011 49 359 0.0 0.0 0.00 0.00 0.00 53 1022.9
20240221194513 49 359 0.0 0.0 0.00 0.00 0.00 53 1022.9
20240221193011 49 359 0.0 0.0 0.00 0.00 0.00 55 1022.8
20240221191508 48 359 0.0 0.0 0.00 0.00 0.00 60 1022.8
20240221190007 48 359 0.0 0.0 0.00 0.00 0.00 62 1022.8
20240221184507 49 359 0.0 0.0 0.00 0.00 0.00 61 1022.8
20240221183011 49 359 0.0 0.0 0.00 0.00 0.00 60 1022.6
20240221181504 50 359 0.0 0.0 0.00 0.00 0.00 60 1022.6
20240221180002 50 359 0.0 0.0 0.00 0.00 0.00 61 1022.3
20240221174502 51 359 0.0 0.0 0.00 0.00 0.00 59 1022.3
20240221173002 51 359 0.0 0.0 0.00 0.00 0.00 63 1022.1
20240221171502 52 359 0.0 0.0 0.00 0.00 0.00 60 1021.9
20240221170002 52 359 0.0 0.0 0.00 0.00 0.00 60 1021.7
20240221164601 52 359 0.0 0.0 0.00 0.00 0.00 59 1021.5
20240221163107 53 359 0.0 0.0 0.00 0.00 0.00 65 1021.4
20240221161600 53 359 0.0 0.0 0.00 0.00 0.00 66 1021.2
20240221160146 54 359 0.0 0.0 0.00 0.00 0.00 64 1021.0
20240221154559 55 359 0.0 0.0 0.00 0.00 0.00 59 1020.8
20240221153103 56 359 0.0 0.0 0.00 0.00 0.00 53 1020.7
20240221151630 56 359 0.0 0.0 0.00 0.00 0.00 59 1020.6
20240221150100 56 359 0.0 0.0 0.00 0.00 0.00 58 1020.7
20240221144556 58 359 0.0 0.0 0.00 0.00 0.00 51 1020.6
20240221143056 57 359 0.0 0.0 0.00 0.00 0.00 48 1020.6
20240221141556 57 359 0.0 0.0 0.00 0.00 0.00 47 1020.7
20240221140055 57 359 0.0 0.0 0.00 0.00 0.00 46 1020.8
20240221134555 57 359 0.0 0.0 0.00 0.00 0.00 46 1020.9
20240221133055 58 359 0.0 0.0 0.00 0.00 0.00 45 1020.8
20240221131553 58 359 0.0 0.0 0.00 0.00 0.00 45 1020.8
20240221130053 58 359 0.0 0.0 0.00 0.00 0.00 46 1020.8
20240221124554 58 359 0.0 0.0 0.00 0.00 0.00 43 1020.9
20240221123053 59 359 0.0 0.0 0.00 0.00 0.00 44 1021.1
20240221121603 59 359 0.0 0.0 0.00 0.00 0.00 45 1021.2